User: anonymous   Login
Location: *
(52.2090°N, 4.1550°W)
Time: 17:50:35
(UTC+00:00)
Language:

Terra - Orbit

View from above orbital plane
View from above orbital plane
View from above satellite
View from above satellite

Ground track
Ground track

The orbit data is extracted from the following two-line orbital elements,

1 25994U 99068A   19289.08873013  .00000005  00000-0  11240-4 0  9997
2 25994  98.1961   1.7962 0001473  92.0911 268.0459 14.57115279 54585
Epoch (UTC): 16 October 2019 02:07:46
Eccentricity: 0.0001473
inclination: 98.1961°
perigee height: 701 km
apogee height: 703 km
right ascension of ascending node: 1.7962°
argument of perigee: 92.0911°
revolutions per day: 14.57115279
mean anomaly at epoch: 268.0459°
orbit number at epoch: 5458

The dashed part of the orbit path shows where the satellite is in the earth's shadow,  

DLR